EW8748 Mirabella Imbaccari IT current weather conditions

sailwx.info

Wind from 032 at 2 knots gusting 6

Air temperature 9.4° C
Dewpoint 9.1° C

Last reported at 2020-Jan-22 13:05 UTC.
Time now 2020-Jan-22 13:43 UTC

Location: N 37°20' E 014°27'.
View on Google Maps.

See reports from other nearby stations

  
Tides and Currents Weather Stations Pressure Air Temp Water Temp Dewpoint Dewpoint Depression Visibility Wind Speed Wind Dir Waves Ship Positions
date/time (UTC)wind fromknots sea level pressurealtimeterstation pressurevisibilityair tempwater tempwave heightnotes
2020-Jan-22 13:05 032 2 gusting 6 9.4
2020-Jan-22 13:00 009 0 gusting 4 9.4
2020-Jan-22 12:55 021 0 gusting 4 9.4
2020-Jan-22 12:40 9.4
2020-Jan-22 12:35 070 1 gusting 6 9.4
2020-Jan-22 12:30 048 0 gusting 2 9.4
2020-Jan-22 12:25 041 1 gusting 5 9.4
2020-Jan-22 12:10 062 9.4
2020-Jan-22 12:05 046 0 gusting 2 9.4
2020-Jan-22 11:55 073 9.4
2020-Jan-22 11:40 048 9.4
2020-Jan-22 11:35 073 0 gusting 2 9.4
2020-Jan-22 11:30 063 1 gusting 5 9.4
2020-Jan-22 11:25 062 0 gusting 2 9.4
2020-Jan-22 11:20 059 0 gusting 6 9.4
2020-Jan-22 11:15 065 1 gusting 5 9.4
2020-Jan-22 11:10 045 0 gusting 4 9.4
2020-Jan-22 11:05 068 0 gusting 4 9.4
2020-Jan-22 11:00 066 1 gusting 4 9.4
2020-Jan-22 10:50 080 1 gusting 4 9.4
2020-Jan-22 10:45 067 0 gusting 4 9.4
2020-Jan-22 10:40 083 1 gusting 5 9.4
2020-Jan-22 10:35 064 0 gusting 4 9.4
2020-Jan-22 10:25 065 0 gusting 4 9.4
2020-Jan-22 10:20 078 0 gusting 4 9.4
2020-Jan-22 10:10 063 1 gusting 4 9.4
2020-Jan-22 10:05 070 1 gusting 6 9.4
2020-Jan-22 10:00 022 1 gusting 4 8.9
2020-Jan-22 09:55 062 1 gusting 5 8.9
2020-Jan-22 09:50 065 1 gusting 2 8.9
2020-Jan-22 09:45 053 1 gusting 4 8.9
2020-Jan-22 09:40 063 0 gusting 2 8.9
2020-Jan-22 09:35 084 1 gusting 4 8.9
2020-Jan-22 09:30 076 0 gusting 4 8.9
2020-Jan-22 09:25 098 1 gusting 5 8.9
2020-Jan-22 09:20 064 1 gusting 4 8.9
2020-Jan-22 09:15 066 0 gusting 2 8.9
2020-Jan-22 09:10 074 1 gusting 4 8.9
2020-Jan-22 09:05 067 8.9
2020-Jan-22 09:00 077 0 gusting 2 8.9
2020-Jan-22 08:55 069 0 gusting 4 8.9
2020-Jan-22 08:50 071 0 gusting 2 8.9
2020-Jan-22 08:40 108 1 gusting 4 8.9
2020-Jan-22 08:35 069 0 gusting 5 8.9
2020-Jan-22 08:25 070 0 gusting 2 8.9
2020-Jan-22 08:20 065 8.9
2020-Jan-22 08:10 084 1 gusting 6 8.9
2020-Jan-22 08:05 071 0 gusting 4 8.9
2020-Jan-22 08:00 084 0 gusting 5 8.9
2020-Jan-22 07:55 076 1 gusting 4 8.9
2020-Jan-22 07:50 071 0 gusting 4 8.9
2020-Jan-22 07:45 070 1 gusting 4 8.9
2020-Jan-22 07:35 072 0 gusting 6 8.9
2020-Jan-22 07:30 086 1 gusting 5 8.9
2020-Jan-22 07:25 075 0 gusting 4 8.9
2020-Jan-22 07:20 075 2 gusting 5 8.9
2020-Jan-22 07:15 071 1 gusting 4 8.9
2020-Jan-22 07:05 075 2 gusting 5 8.9
2020-Jan-22 06:55 065 2 gusting 6 8.9
2020-Jan-22 06:45 072 3 gusting 7 8.9
2020-Jan-22 06:35 075 4 gusting 6 8.9
2020-Jan-22 06:30 075 3 gusting 6 8.9
2020-Jan-22 06:25 073 2 gusting 6 8.9
2020-Jan-22 06:20 069 2 gusting 6 8.9
2020-Jan-22 06:10 080 2 gusting 7 8.9
2020-Jan-22 06:05 084 2 gusting 6 8.9
2020-Jan-22 06:00 067 4 gusting 8 8.9
2020-Jan-22 05:55 085 2 gusting 6 8.9
2020-Jan-22 05:45 072 2 gusting 6 8.9
2020-Jan-22 05:40 067 3 gusting 6 8.9
2020-Jan-22 05:35 077 2 gusting 6 8.9
2020-Jan-22 05:30 080 3 gusting 6 8.9
2020-Jan-22 05:25 072 2 gusting 6 8.9
2020-Jan-22 05:20 080 1 gusting 4 8.9
2020-Jan-22 05:15 064 1 gusting 4 8.9
2020-Jan-22 05:10 043 0 gusting 4 8.9
2020-Jan-22 05:05 072 1 gusting 6 8.9
2020-Jan-22 05:00 044 1 gusting 6 8.9
2020-Jan-22 04:55 036 1 gusting 6 8.9
2020-Jan-22 04:50 080 2 gusting 5 8.9
2020-Jan-22 04:40 071 2 gusting 8 8.9
2020-Jan-22 04:20 089 1 gusting 5 8.9
2020-Jan-22 04:10 069 1 gusting 4 8.9
2020-Jan-22 04:05 058 2 gusting 6 8.9
2020-Jan-22 04:00 059 1 gusting 6 8.9
2020-Jan-22 03:55 064 1 gusting 6 8.9
2020-Jan-22 03:50 071 1 gusting 4 8.9
2020-Jan-22 03:45 086 2 gusting 6 8.9
2020-Jan-22 03:40 033 2 gusting 6 8.9
2020-Jan-22 03:35 075 1 gusting 4 8.9
2020-Jan-22 03:25 079 1 gusting 7 8.9
2020-Jan-22 03:20 098 2 gusting 6 8.9
2020-Jan-22 03:10 061 2 gusting 6 8.9
2020-Jan-22 03:05 074 3 gusting 6 8.9
2020-Jan-22 03:00 068 3 gusting 7 8.9
2020-Jan-22 02:55 064 2 gusting 7 8.9
2020-Jan-22 02:50 082 2 gusting 6 8.9
2020-Jan-22 02:45 075 4 gusting 7 8.9
2020-Jan-22 02:40 066 4 gusting 7 8.9
2020-Jan-22 02:35 075 2 gusting 8 8.9
2020-Jan-22 02:30 078 3 gusting 6 8.9
2020-Jan-22 02:25 068 4 gusting 8 8.9
2020-Jan-22 02:20 094 4 gusting 7 8.9
2020-Jan-22 02:10 076 2 gusting 6 8.9
2020-Jan-22 02:05 064 4 gusting 10 8.9
2020-Jan-22 02:00 080 3 gusting 7 8.9
2020-Jan-22 01:55 074 3 gusting 6 8.9
2020-Jan-22 01:50 057 4 gusting 6 8.9
2020-Jan-22 01:40 059 4 gusting 6 8.9
2020-Jan-22 01:35 064 3 gusting 7 8.9
2020-Jan-22 01:25 053 2 gusting 6 8.9
2020-Jan-22 01:20 059 2 gusting 6 8.9
2020-Jan-22 01:15 067 4 gusting 8 8.9
2020-Jan-22 01:10 078 2 gusting 6 8.9
2020-Jan-22 01:05 068 2 gusting 8 8.9
2020-Jan-22 01:00 066 3 gusting 6 8.9
2020-Jan-22 00:50 076 2 gusting 6 8.9
2020-Jan-22 00:40 058 4 gusting 10 8.9
2020-Jan-22 00:35 040 2 gusting 7 8.9
2020-Jan-22 00:25 077 3 gusting 7 8.9
2020-Jan-22 00:20 119 3 gusting 6 8.9
2020-Jan-22 00:15 077 4 gusting 8 8.9
2020-Jan-22 00:05 074 3 gusting 6 8.9
2020-Jan-22 00:00 067 3 gusting 6 8.9
2020-Jan-21 23:55 091 2 gusting 7 8.9
2020-Jan-21 23:45 080 2 gusting 6 8.9
2020-Jan-21 23:30 076 2 gusting 6 8.9
2020-Jan-21 23:20 096 4 gusting 8 8.9
2020-Jan-21 23:10 071 2 gusting 8 8.9
2020-Jan-21 23:05 079 3 gusting 6 8.9
2020-Jan-21 22:50 065 5 gusting 8 8.9
2020-Jan-21 22:45 097 4 gusting 10 8.9
2020-Jan-21 22:30 096 5 gusting 8 9.4
2020-Jan-21 22:05 081 6 gusting 11 9.4
2020-Jan-21 21:55 057 6 gusting 10 9.4
2020-Jan-21 21:50 057 6 gusting 11 9.4
2020-Jan-21 21:45 063 4 gusting 11 9.4
2020-Jan-21 21:35 076 5 gusting 10 9.4
2020-Jan-21 21:20 109 4 gusting 7 9.4
2020-Jan-21 21:05 090 3 gusting 7 9.4
2020-Jan-21 21:00 080 3 gusting 6 9.4
2020-Jan-21 20:55 098 2 gusting 7 9.4
2020-Jan-21 20:50 071 5 gusting 7 9.4
2020-Jan-21 20:45 098 4 gusting 8 9.4
2020-Jan-21 20:40 065 5 gusting 7 9.4
2020-Jan-21 20:35 093 4 gusting 8 9.4
2020-Jan-21 20:30 066 2 gusting 6 9.4
2020-Jan-21 20:25 051 4 gusting 8 9.4
2020-Jan-21 20:20 052 3 gusting 6 9.4
2020-Jan-21 20:15 074 3 gusting 8 9.4
2020-Jan-21 20:05 065 4 gusting 8 9.4
2020-Jan-21 19:50 071 4 gusting 7 9.4
2020-Jan-21 19:45 073 4 gusting 8 9.4
2020-Jan-21 19:40 081 2 gusting 7 9.4
2020-Jan-21 19:35 047 5 gusting 6 9.4
2020-Jan-21 19:30 066 4 gusting 7 9.4
2020-Jan-21 19:20 097 5 gusting 7 9.4
2020-Jan-21 19:15 065 5 gusting 8 9.4
2020-Jan-21 19:10 084 4 gusting 8 9.4
2020-Jan-21 19:05 092 5 gusting 7 9.4
2020-Jan-21 19:00 053 5 gusting 11 9.4
2020-Jan-21 18:55 081 4 gusting 10 9.4
2020-Jan-21 18:50 063 5 gusting 8 9.4
2020-Jan-21 18:45 070 5 gusting 10 9.4
2020-Jan-21 18:25 093 5 gusting 10 9.4
2020-Jan-21 18:15 066 6 gusting 11 9.4
2020-Jan-21 18:05 035 5 gusting 10 9.4
2020-Jan-21 18:00 111 5 gusting 8 9.4
2020-Jan-21 17:55 080 4 gusting 10 9.4
2020-Jan-21 17:40 064 2 gusting 7 9.4
2020-Jan-21 17:30 059 6 gusting 10 9.4
2020-Jan-21 17:25 094 4 gusting 10 9.4
2020-Jan-21 17:20 075 6 gusting 10 9.4
2020-Jan-21 17:15 096 5 gusting 10 9.4
2020-Jan-21 17:10 065 4 gusting 7 9.4
2020-Jan-21 17:05 087 5 gusting 8 9.4
2020-Jan-21 16:55 067 6 gusting 13 9.4
2020-Jan-21 16:40 120 6 gusting 13 9.4
2020-Jan-21 16:35 081 5 gusting 10 9.4
2020-Jan-21 16:30 061 6 gusting 13 9.4
2020-Jan-21 16:25 094 5 gusting 10 9.4
2020-Jan-21 16:20 038 6 gusting 10 9.4
2020-Jan-21 16:10 067 3 gusting 11 9.4
2020-Jan-21 16:00 068 6 gusting 11 9.4
2020-Jan-21 15:55 064 6 gusting 10 9.4
2020-Jan-21 15:50 076 5 gusting 11 9.4
2020-Jan-21 15:40 044 6 gusting 13 9.4
2020-Jan-21 15:20 092 5 gusting 7 9.4
2020-Jan-21 15:00 074 6 gusting 11 10.0
2020-Jan-21 14:45 067 4 gusting 11 10.0
2020-Jan-21 14:35 081 5 gusting 8 10.0
2020-Jan-21 14:30 086 5 gusting 11 10.0
2020-Jan-21 14:20 074 4 gusting 8 10.0
2020-Jan-21 14:15 110 4 gusting 7 10.0
2020-Jan-21 14:10 078 4 gusting 11 10.0
2020-Jan-21 14:05 083 5 gusting 8 10.0
2020-Jan-21 14:00 066 5 gusting 10 10.0
2020-Jan-21 13:55 076 5 gusting 8 10.0
2020-Jan-21 13:50 055 5 gusting 8 10.0
2020-Jan-21 13:45 105 4 gusting 10 10.0
2020-Jan-21 13:30 048 2 gusting 6 10.0
2020-Jan-21 13:25 081 6 gusting 10 10.0
2020-Jan-21 13:15 061 5 gusting 10 10.0
2020-Jan-21 13:05 072 5 gusting 10 10.0
2020-Jan-21 13:00 092 5 gusting 10 10.0
2020-Jan-21 12:55 074 6 gusting 10 10.0
2020-Jan-21 12:50 070 6 gusting 12 10.0
2020-Jan-21 12:45 083 3 gusting 8 10.0
2020-Jan-21 12:40 061 5 gusting 10 10.0
2020-Jan-21 12:35 088 4 gusting 8 10.0
2020-Jan-21 12:30 030 4 gusting 10 10.0
2020-Jan-21 12:25 084 4 gusting 8 10.0
2020-Jan-21 12:10 085 5 gusting 11 10.0
2020-Jan-21 12:00 069 4 gusting 10 10.0
2020-Jan-21 11:50 109 5 gusting 10 10.0
2020-Jan-21 11:40 045 5 gusting 11 10.0
2020-Jan-21 11:35 078 4 gusting 8 10.0
2020-Jan-21 11:30 066 5 gusting 12 10.0
2020-Jan-21 11:10 105 6 gusting 10 10.0
2020-Jan-21 11:05 092 5 gusting 10 10.0
2020-Jan-21 11:00 084 3 gusting 8 10.0
2020-Jan-21 10:55 088 3 gusting 6 10.0
2020-Jan-21 10:45 075 4 gusting 7 10.0
2020-Jan-21 10:40 083 3 gusting 8 10.0
2020-Jan-21 10:25 071 5 gusting 10 10.0
2020-Jan-21 10:10 106 4 gusting 11 10.0
2020-Jan-21 10:00 067 5 gusting 10 10.0
2020-Jan-21 09:55 063 4 gusting 10 9.4
2020-Jan-21 09:50 051 5 gusting 10 9.4
2020-Jan-21 09:45 062 4 gusting 10 9.4
2020-Jan-21 09:40 074 5 gusting 8 9.4
2020-Jan-21 09:35 059 5 gusting 10 9.4
2020-Jan-21 09:30 069 5 gusting 8 9.4
2020-Jan-21 09:20 080 5 gusting 10 9.4
2020-Jan-21 09:15 078 4 gusting 11 9.4
2020-Jan-21 09:10 086 6 gusting 11 9.4
2020-Jan-21 09:05 049 6 gusting 8 9.4
2020-Jan-21 09:00 050 7 gusting 11 9.4
2020-Jan-21 08:55 077 5 gusting 12 9.4
2020-Jan-21 08:45 082 6 gusting 10 9.4
2020-Jan-21 08:40 042 5 gusting 10 9.4
2020-Jan-21 08:35 063 6 gusting 11 9.4
2020-Jan-21 08:30 098 5 gusting 12 9.4
2020-Jan-21 08:25 097 5 gusting 10 9.4
2020-Jan-21 08:20 098 5 gusting 8 9.4
2020-Jan-21 08:15 078 5 gusting 8 9.4
2020-Jan-21 08:05 084 4 gusting 10 9.4
2020-Jan-21 08:00 072 5 gusting 10 9.4
2020-Jan-21 07:55 072 4 gusting 7 9.4
2020-Jan-21 07:50 032 3 gusting 7 9.4
2020-Jan-21 07:45 080 5 gusting 10 9.4
2020-Jan-21 07:40 079 6 gusting 13 9.4
2020-Jan-21 07:35 069 6 gusting 11 9.4
2020-Jan-21 07:20 066 4 gusting 7 10.0
2020-Jan-21 07:10 039 3 gusting 6 10.0
2020-Jan-21 07:05 074 4 gusting 6 9.4
2020-Jan-21 06:50 074 2 gusting 8 9.4
2020-Jan-21 06:45 070 4 gusting 8 9.4
2020-Jan-21 06:40 092 4 gusting 7 9.4
2020-Jan-21 06:35 061 4 gusting 10 9.4
2020-Jan-21 06:25 044 5 gusting 12 10.0
2020-Jan-21 06:20 092 4 gusting 7 10.0
2020-Jan-21 06:15 073 4 gusting 10 10.0
2020-Jan-21 06:10 055 4 gusting 11 10.0
2020-Jan-21 05:55 082 5 gusting 8 10.0
2020-Jan-21 05:50 084 5 gusting 10 10.0
2020-Jan-21 05:45 052 4 gusting 10 10.0
2020-Jan-21 05:40 067 3 gusting 8 10.0
2020-Jan-21 05:35 069 4 gusting 8 10.0
2020-Jan-21 05:30 082 6 gusting 11 10.0
2020-Jan-21 05:25 055 4 gusting 10 10.0
2020-Jan-21 05:20 076 4 gusting 7 10.0
2020-Jan-21 05:15 074 5 gusting 7 9.4
2020-Jan-21 05:10 076 4 gusting 7 9.4
2020-Jan-21 05:05 070 5 gusting 10 9.4
2020-Jan-21 05:00 067 4 gusting 7 9.4
2020-Jan-21 04:55 072 4 gusting 10 9.4
2020-Jan-21 04:50 063 2 gusting 8 9.4
2020-Jan-21 04:40 074 3 gusting 7 9.4
2020-Jan-21 04:35 071 4 gusting 6 9.4
2020-Jan-21 04:30 023 2 gusting 6 9.4
2020-Jan-21 04:20 074 2 gusting 6 9.4
2020-Jan-21 04:10 081 2 gusting 6 9.4
2020-Jan-21 04:05 057 4 gusting 7 9.4
2020-Jan-21 03:55 075 5 gusting 7 9.4
2020-Jan-21 03:50 091 3 gusting 7 9.4
2020-Jan-21 03:35 074 4 gusting 7 9.4
2020-Jan-21 01:05 079 6 gusting 14 10.0
2020-Jan-21 00:55 078 6 gusting 17 10.0
2020-Jan-21 00:50 066 6 gusting 12 10.0
2020-Jan-21 00:45 078 5 gusting 10 10.0
2020-Jan-21 00:35 080 6 gusting 11 10.0
2020-Jan-21 00:25 046 5 gusting 10 10.0
2020-Jan-21 00:20 084 5 gusting 10 10.0
2020-Jan-21 00:15 065 6 gusting 10 10.0
2020-Jan-21 00:10 042 5 gusting 8 10.0
2020-Jan-21 00:05 104 3 gusting 7 10.0
2020-Jan-21 00:00 077 5 gusting 10 10.0
2020-Jan-20 23:50 065 6 gusting 11 10.0
2020-Jan-20 23:45 098 5 gusting 10 10.0
2020-Jan-20 23:40 092 5 gusting 10 10.0
2020-Jan-20 23:30 085 6 gusting 10 10.0
2020-Jan-20 23:25 103 5 gusting 10 10.0
2020-Jan-20 23:20 057 6 gusting 11 10.0
2020-Jan-20 23:15 071 6 gusting 11 10.0
2020-Jan-20 23:10 061 4 gusting 11 10.0
2020-Jan-20 23:05 073 6 gusting 13 10.0
2020-Jan-20 23:00 053 5 gusting 10 10.0
2020-Jan-20 22:55 075 6 gusting 11 10.0
2020-Jan-20 22:45 080 5 gusting 12 9.4
2020-Jan-20 22:30 090 6 gusting 14 9.4
2020-Jan-20 22:25 060 7 gusting 11 10.0
2020-Jan-20 22:20 078 8 gusting 13 10.0
2020-Jan-20 22:15 073 6 gusting 12 10.0
2020-Jan-20 22:05 070 7 gusting 12 10.0
2020-Jan-20 22:00 070 6 gusting 13 10.0
2020-Jan-20 21:55 109 6 gusting 13 10.0
2020-Jan-20 21:45 076 8 gusting 13 10.0
2020-Jan-20 21:40 072 8 gusting 13 10.0
2020-Jan-20 21:35 119 7 gusting 12 10.0
2020-Jan-20 21:25 069 6 gusting 12 10.0
2020-Jan-20 21:10 063 8 gusting 13 10.0
2020-Jan-20 21:05 090 7 gusting 13 10.0
2020-Jan-20 21:00 085 8 gusting 13 10.0
2020-Jan-20 20:55 072 7 gusting 13 10.0
2020-Jan-20 20:50 096 7 gusting 13 10.0
2020-Jan-20 20:45 075 7 gusting 15 10.0
2020-Jan-20 20:40 066 8 gusting 17 10.0
2020-Jan-20 20:35 084 6 gusting 15 10.0
2020-Jan-20 20:30 086 7 gusting 14 10.0
2020-Jan-20 20:25 080 7 gusting 12 10.0
2020-Jan-20 20:20 040 5 gusting 13 10.0
2020-Jan-20 20:15 080 6 gusting 10 10.0
2020-Jan-20 19:55 081 7 gusting 14 10.0
2020-Jan-20 19:50 069 7 gusting 14 10.0
2020-Jan-20 19:45 076 8 gusting 14 10.0
2020-Jan-20 19:35 075 6 gusting 11 10.0
2020-Jan-20 19:30 077 6 gusting 13 10.0
2020-Jan-20 19:20 053 6 gusting 13 10.0
2020-Jan-20 19:10 093 10 gusting 17 10.0
2020-Jan-20 19:05 075 10 gusting 17 10.0
2020-Jan-20 19:00 081 10 gusting 21 10.0
2020-Jan-20 18:55 084 11 gusting 20 10.0
2020-Jan-20 18:50 086 8 gusting 15 10.0
2020-Jan-20 18:45 072 7 gusting 15 9.4
2020-Jan-20 18:35 077 8 gusting 17 10.0
2020-Jan-20 18:30 102 7 gusting 17 10.0
2020-Jan-20 18:20 096 7 gusting 13 10.0
2020-Jan-20 18:10 078 7 gusting 13 10.0
2020-Jan-20 18:00 085 7 gusting 13 10.0
2020-Jan-20 17:55 077 6 gusting 10 10.0
2020-Jan-20 17:50 072 6 gusting 13 10.0
2020-Jan-20 17:25 081 7 gusting 15 10.0
2020-Jan-20 17:20 063 7 gusting 13 10.0
2020-Jan-20 17:15 075 7 gusting 13 10.0
2020-Jan-20 16:50 084 5 gusting 10 10.0
2020-Jan-20 16:45 075 6 gusting 11 10.0
2020-Jan-20 16:40 015 6 gusting 13 10.0
2020-Jan-20 16:35 078 6 gusting 13 10.0
2020-Jan-20 16:30 084 6 gusting 13 10.0
2020-Jan-20 16:25 073 6 gusting 15 10.0
2020-Jan-20 16:20 086 7 gusting 14 10.0
2020-Jan-20 16:15 081 6 gusting 13 10.0
2020-Jan-20 16:10 069 7 gusting 14 10.0
2020-Jan-20 16:05 071 7 gusting 14 10.0
2020-Jan-20 15:55 082 6 gusting 12 10.0
2020-Jan-20 15:50 044 7 gusting 17 10.6
2020-Jan-20 15:45 074 7 gusting 14 10.6
2020-Jan-20 15:40 081 6 gusting 11 10.6
2020-Jan-20 15:35 073 6 gusting 13 10.6
2020-Jan-20 15:30 101 7 gusting 14 10.6
2020-Jan-20 15:15 082 8 gusting 15 10.0
2020-Jan-20 15:10 079 7 gusting 13 10.0
2020-Jan-20 15:05 068 5 gusting 13 10.0
2020-Jan-20 15:00 069 7 gusting 14 10.0
2020-Jan-20 14:50 010 6 gusting 13 10.0
2020-Jan-20 14:40 058 7 gusting 13 10.0
2020-Jan-20 14:35 075 7 gusting 15 10.0
2020-Jan-20 14:30 043 10 gusting 14 10.0
2020-Jan-20 14:20 049 8 gusting 14 10.0
2020-Jan-20 14:15 070 7 gusting 13 10.0
2020-Jan-20 14:10 067 7 gusting 14 10.0
2020-Jan-20 14:05 071 6 gusting 11 10.0
2020-Jan-20 14:00 071 6 gusting 13 10.0
2020-Jan-20 13:55 070 6 gusting 13 10.0
2020-Jan-20 13:45 075 6 gusting 14 10.0
2020-Jan-20 13:35 081 8 gusting 14 10.0
2020-Jan-20 13:30 054 9 gusting 17 10.0
2020-Jan-20 13:20 087 8 gusting 12 10.0
2020-Jan-20 13:15 082 8 gusting 17 10.0
2020-Jan-20 13:10 038 8 gusting 13 10.0
2020-Jan-20 13:00 084 6 gusting 13 10.0